Regional Weather Roundup
Issued by NWS Sterling, VA

Home | Current Version | Previous Version | Graphics & Text | Print | Product List | Glossary On
Versions: 1 2 3 4 5 6 7 8 9 10 11 12 13 14 15 16 17 18 19 20 21 22 23 24 25 26 27 28 29 30 31 32 33 34 35 36 37 38 39 40 41 42 43 44 45 46 47 48 49 50
000
ASUS41 KLWX 220510
RWRLWX

REGIONAL WEATHER ROUNDUP
NATIONAL WEATHER SERVICE BALTIMORE MD/WASHINGTON DC
100 AM EDT MON SEP 22 2014

Note: "FAIR" indicates few or no clouds below 12,000 feet
with no significant weather and/or obstructions to visibility.
 TC=TEMPERATURE CELSIUS

 * =Non NWS site. Station does not report precipitation (e.g. rain,
    snow, etc.), thunder, or fog.

DCZ001-MDZ009-015-VAZ040>042-051-053>054-220600-
WASHINGTON METRO

CITY           SKY/WX    TMP DP  RH WIND       PRES   REMARKS
WASHINGTON NAT PTCLDY    76  51  41 NW8G17    29.77R
DULLES         PTCLDY    70  48  45 NW21      29.80R
ANDREWS AFB    PTCLDY    74  53  47 NW21G29   29.77R
QUANTICO       PTCLDY    72  53  51 NW8       29.79R
COLLEGE PARK*  MOCLDY    75  52  43 NW8       29.76R
LEESBURG*      PTCLDY    70  52  52 NW14G21   29.81R
MANASSAS*      PTCLDY    72  50  46 NW17      29.79R
GAITHERSBURG*  PTCLDY    66  50  55 W7        29.82R

$$

MDZ006>007-011-014-220600-
BALTIMORE METRO

CITY           SKY/WX    TMP DP  RH WIND       PRES   REMARKS
BWI AIRPORT    MOCLDY    73  51  46 W12       29.75R
MD SCIENCE CTR   N/A     74  51  44 MISG      29.75R
MARTIN STATE   MOCLDY    73  57  56 W10       29.75R
ANNAPOLIS      PTCLDY    73  57  57 W9        29.74R
FORT MEADE*    MOCLDY    64  57  77 W10G16    29.78R

$$

MDZ012-015-019>023-220600-
MARYLAND EASTERN SHORE

CITY           SKY/WX    TMP DP  RH WIND       PRES   REMARKS
OCEAN CITY     CLEAR     74  66  76 W10       29.71R
SALISBURY      PTCLDY    77  67  71 W12       29.73R
BAY BRIDGE AP*   N/A     73  54  49 NW18G25   29.74R
CAMBRIDGE*     PTCLDY    77  63  61 W7        29.73R
EASTON*        PTCLDY    75  64  68 NW10      29.77R

$$

MDZ017>025-220600-
SOUTHERN MARYLAND

CITY           SKY/WX    TMP DP  RH WIND       PRES   REMARKS
PATUXENT RIVER MOCLDY    75  59  57 W14       29.75R
ST INIGOES     PTCLDY    75  60  59 W9        29.75R
LEONARDTOWN*   CLOUDY    73  59  60 W8        29.78R

$$

MDZ003>005-220600-
NORTH CENTRAL MARYLAND

CITY           SKY/WX    TMP DP  RH WIND       PRES   REMARKS
FREDERICK*     PTCLDY    72  50  46 W13       29.81R
HAGERSTOWN APT CLEAR     65  46  50 W16       29.80R
WESTMINSTER*   PTCLDY    70  55  60 W10       29.77R

$$

MDZ501>502-220600-
WESTERN MARYLAND

CITY           SKY/WX    TMP DP  RH WIND       PRES   REMARKS
OAKLAND*       PTCLDY    50  50 100 W14G25    29.91S
CUMBERLAND*    CLEAR     63  45  51 NW7       29.90R

$$

VAZ025>031-220600-
SHENANDOAH VALLEY

CITY           SKY/WX    TMP DP  RH WIND       PRES   REMARKS
WINCHESTER*    CLEAR     68  45  42 W12G21    29.83R
STAUNTON*      CLEAR     64  46  51 W3        29.90R

$$

WVZ021-048>050-054>055-220600-
EASTERN WEST VIRGINIA PANHANDLE

CITY           SKY/WX    TMP DP  RH WIND       PRES   REMARKS
MARTINSBURG    CLEAR     68  44  42 W15       29.82R
PETERSBURG*    PTCLDY    65  44  47 W6G17     29.89R

$$

VAZ036>039-050-220600-
CENTRAL FOOTHILLS

CITY           SKY/WX    TMP DP  RH WIND       PRES   REMARKS
CHARLOTTESVILL PTCLDY    71  47  42 NW8       29.84R
ORANGE*        PTCLDY    70  50  49 W6        29.84R

$$

VAZ055>057-220600-
NORTH AND CENTRAL PIEDMONT

CITY           SKY/WX    TMP DP  RH WIND       PRES   REMARKS
FREDERICKSBRG* PTCLDY    74  58  56 NW8       29.78R
STAFFORD*      PTCLDY    70  53  55 NW8       29.83R

$$

NCZ024-NYZ072-PAZ021-071-VAZ022-071-220600-
OTHER REGIONAL OBSERVATIONS

CITY           SKY/WX    TMP DP  RH WIND       PRES   REMARKS
NEW YORK CITY  LGT RAIN  70  66  87 W6        29.67R
PHILADELPHIA   MOCLDY    73  61  65 W14       29.69R
PITTSBURGH     LGT RAIN  55  52  89 NW15G28   29.90R
ROANOKE        PTCLDY    65  50  58 NW8       29.94R
RICHMOND       PTCLDY    76  63  64 W8        29.79R
RALEIGH        MOCLDY    70  67  90 SW6       29.87S

$$

ANZ530>537-220600-
MARINE OBSERVATIONS

STATION/POSITION TIME  TEMP    WIND        PRES
                       AIR SEA DIR/SP/G
                 (UTC) (F)     (DEG/KT/KT) (MB)
THOMAS PT LIGHT  0500   74 74  310/ 19/ 22 1007.8R
BALT KEY BRIDGE  0500   75     280/ 14/ 15 1007.1R
COVE POINT       0500   75     310/ 13/ 18 1007.2R
LEWISETTA        0500   74 74  300/  7/ 10 1007.5R
SOLOMONS ISLAND  0500      76                N/A
PINEY POINT      0500          330/ 20/ 23   N/A

$$




USA.gov is the U.S. government's official web portal to all federal, state and local government web resources and services.